Location: Hickory_CSC
(35.7330°N, 81.3330°W)
Time: 01:51:33
(UTC-05:00)

Cosmos 1356 Rocket - Visible Passes

Search period start: 13 February 2016 00:00
Search period end: 23 February 2016 00:00
Orbit: 544 x 602 km, 81.2° (Epoch: 11 February)

Date Brightness Start Highest point End Pass type
(mag) Time Alt. Az. Time Alt. Az. Time Alt. Az.
13 Feb 3.9 06:24:27 10° N 06:28:27 62° E 06:32:30 10° SSE visible
13 Feb 4.2 18:45:51 10° SSE 18:49:21 28° E 18:52:49 10° NNE visible
13 Feb 6.2 20:23:47 10° WSW 20:26:24 16° WNW 20:29:01 10° NNW visible
14 Feb 3.4 06:27:22 10° N 06:31:27 88° E 06:35:33 10° S visible
14 Feb 3.8 18:48:29 10° SSE 18:52:16 39° E 18:56:02 10° NNE visible
14 Feb 6.6 20:27:52 10° W 20:29:29 12° WNW 20:31:06 10° NW visible
15 Feb 3.3 06:30:23 10° NNW 06:34:25 65° W 06:38:29 10° S visible
15 Feb 3.4 18:51:15 10° S 18:55:13 56° E 18:59:09 10° NNE visible
16 Feb 6.7 04:59:02 10° NE 05:00:04 11° ENE 05:01:07 10° E visible
16 Feb 3.6 06:33:28 10° NNW 06:37:21 46° W 06:41:18 10° SSW visible
16 Feb 3.2 18:54:08 10° S 18:58:10 81° E 19:02:11 10° N visible
17 Feb 6.5 05:00:48 10° NE 05:03:10 15° ENE 05:05:33 10° ESE visible
17 Feb 4.1 06:36:38 10° NNW 06:40:17 33° W 06:44:00 10° SSW visible
17 Feb 3.6 18:57:07 10° SSW 19:01:08 72° W 19:05:08 10° N visible
18 Feb 6.0 05:03:11 10° NNE 05:06:14 20° ENE 05:09:19 10° ESE visible
18 Feb 4.5 06:39:54 10° NW 06:43:12 24° W 06:46:33 10° SW visible
18 Feb 4.3 19:00:13 10° SSW 19:04:08 50° W 19:08:01 10° N visible
19 Feb 5.5 05:05:46 10° NNE 05:09:17 27° ENE 05:12:49 10° SE visible
19 Feb 5.1 19:03:25 10° SW 19:07:08 35° WNW 19:10:49 10° N visible
20 Feb 4.9 05:08:29 10° N 05:12:18 37° ENE 05:16:10 10° SSE visible
20 Feb 5.7 19:06:47 10° SW 19:10:09 26° WNW 19:13:31 10° NNW visible
21 Feb 4.2 05:11:17 10° N 05:15:19 52° E 05:19:23 10° SSE visible
21 Feb 6.3 19:10:18 10° WSW 19:13:11 19° WNW 19:16:05 10° NNW visible
22 Feb 3.5 05:14:10 10° N 05:18:17 74° E 05:22:27 10° SSE visible
22 Feb 6.5 19:14:07 10° WSW 19:16:15 14° WNW 19:18:24 10° NW visible
